Vorticity
4 3 5 5 1 7 11 2 -1 3 3 5 4 2 1 3 4 5 9 10 11 10 10 10 9 10 7 7 7 5 8 9 8 10 9 5 6 6 6 8 7 5 4 4 7 7 6 4 5 8 4 4 4 5 7 4 4 4 3 4 3 3 3 4 4 4 4 4 4 4 3 3 3 3 3 3 4 5 4 4 4 5 5 6 6 7 7 7 7 6 6 6 5 5 5 6 6
2 2 4 6 6 5 13 15 8 4 3 6 5 4 6 6 6 5 7 8 9 10 10 10 10 12 9 9 11 11 12 12 11 9 6 5 5 5 9 8 6 6 5 7 8 4 6 3 3 6 3 8 7 4 7 4 4 4 4 3 3 4 3 3 4 4 4 4 4 3 4 4 4 5 5 4 5 5 5 5 4 4 4 5 5 6 7 7 9 9 8 7 6 5 6 7 7
4 4 7 13 18 10 7 8 6 8 5 4 5 6 9 8 8 5 3 5 7 8 8 8 9 10 8 9 10 8 9 7 4 3 1 2 3 5 10 7 6 10 7 8 6 4 6 2 4 6 4 7 7 7 6 5 6 3 3 4 4 4 3 4 3 4 4 4 4 4 4 4 5 5 5 4 4 5 5 5 5 5 4 5 5 5 6 7 8 10 9 9 8 6 6 7 7
7 5 4 -0 2 3 4 9 9 8 6 6 6 6 8 7 9 7 3 3 5 5 6 7 9 9 8 8 8 7 8 6 5 4 3 3 3 5 7 4 4 8 7 7 6 8 6 2 4 6 4 4 6 9 6 5 6 3 3 4 4 4 4 4 3 4 4 4 4 4 4 4 4 4 4 4 4 4 4 4 4 4 5 5 5 5 6 6 8 11 11 10 9 8 7 7 7
4 2 5 4 7 9 5 9 8 3 6 9 6 7 8 6 9 10 6 2 2 5 5 5 7 9 9 10 8 8 9 8 7 6 7 8 7 7 6 5 5 6 8 6 6 9 8 5 4 4 4 4 6 7 6 7 6 5 4 4 4 4 4 4 4 4 3 4 4 4 4 4 5 4 4 4 4 4 4 4 4 4 5 5 4 5 4 5 6 9 11 11 10 10 8 6 7
5 7 13 16 11 8 6 7 5 3 6 8 7 7 8 7 6 6 7 6 5 5 4 3 2 5 8 10 11 9 10 8 7 7 8 9 8 8 7 7 6 7 9 5 5 8 7 6 5 6 6 5 6 6 5 5 6 6 4 4 4 3 4 4 4 4 4 3 3 3 3 4 4 4 4 4 5 4 5 5 5 6 5 5 4 4 4 4 4 5 8 11 11 10 8 7 7
12 6 3 12 6 3 5 4 6 7 5 6 7 8 7 8 5 4 7 7 6 2 4 8 3 5 6 7 11 11 12 10 7 7 7 7 7 7 7 7 6 7 6 3 5 6 6 5 4 6 6 4 5 6 5 4 4 6 4 3 4 4 4 4 5 4 4 4 4 3 2 3 3 4 4 4 4 4 5 5 6 6 5 5 4 4 4 3 3 4 5 9 12 11 9 7 6
11 -3 -8 9 10 5 3 1 5 6 5 5 5 8 8 8 7 6 7 6 6 -0 -0 5 1 6 9 6 10 11 11 11 10 9 8 6 6 7 6 7 6 6 6 4 5 6 6 5 4 7 6 3 3 5 8 7 5 6 6 5 4 5 4 4 5 4 4 5 5 4 4 3 3 3 4 4 4 4 4 5 6 5 6 6 5 5 4 3 3 3 4 6 10 12 10 7 6
11 10 2 2 3 3 4 4 4 4 5 5 4 7 7 8 8 6 9 10 11 6 2 5 2 6 8 5 9 10 11 10 10 11 9 7 6 6 7 6 5 6 6 5 5 5 6 5 4 6 5 5 6 7 9 9 6 6 8 5 5 7 6 4 5 4 4 5 4 4 5 4 4 4 4 5 4 4 4 4 5 5 6 6 6 5 5 4 3 3 3 4 6 10 11 9 6
11 16 7 1 4 3 3 4 4 6 6 6 5 6 7 7 8 7 9 10 12 12 12 11 5 5 5 4 8 9 10 9 10 11 10 10 8 7 7 7 7 6 6 5 5 4 5 5 5 6 6 7 7 6 8 9 8 7 8 7 7 7 5 4 4 4 4 4 5 5 5 5 5 4 4 4 4 3 2 3 3 4 6 6 6 4 5 5 4 4 3 3 4 6 10 11 7
10 9 7 6 5 2 3 3 2 5 6 6 5 4 6 6 6 8 8 7 7 6 8 8 3 4 6 5 6 8 10 10 9 9 10 10 9 8 8 7 7 8 8 8 7 7 7 6 6 7 8 8 7 7 7 8 8 7 7 7 7 6 5 5 4 5 5 5 5 5 5 5 4 5 4 3 4 4 4 4 3 3 3 4 4 4 6 6 5 5 4 4 3 4 6 9 10
3 -3 6 6 4 7 3 -1 1 5 6 6 4 2 4 4 5 5 4 4 4 5 6 7 5 2 3 5 5 6 9 9 9 8 8 9 9 8 7 7 7 7 7 7 8 7 6 6 6 6 7 8 8 8 8 7 7 7 7 8 7 7 6 6 6 7 7 6 6 6 6 6 6 5 5 5 5 5 5 5 4 4 4 4 4 4 5 5 5 5 5 5 4 4 3 6 9
4 -3 4 6 6 7 -1 -2 3 4 5 5 5 4 3 3 3 4 5 4 4 5 4 4 5 3 1 4 3 4 6 7 9 8 9 9 9 8 8 8 7 6 7 7 7 6 6 6 7 7 7 8 8 7 7 7 8 9 9 9 9 8 8 7 7 7 7 7 6 6 6 6 6 6 6 6 6 6 6 5 5 4 5 6 5 5 5 4 4 5 4 4 4 4 3 4 5
18 6 2 9 5 2 4 6 3 -1 4 6 5 6 4 2 2 5 6 8 6 4 6 3 3 5 3 2 2 3 3 6 8 7 9 9 9 9 7 8 9 8 8 8 7 8 9 8 8 8 7 7 8 8 7 8 8 9 9 8 9 9 9 9 9 9 9 9 8 8 8 8 8 9 9 9 9 8 8 7 6 6 6 6 6 6 5 5 4 4 4 3 4 5 4 4 3
11 3 1 10 3 2 7 1 -2 -1 4 6 5 7 5 4 5 6 5 7 7 4 6 3 1 3 2 2 3 3 2 4 5 5 8 8 11 12 7 6 8 8 7 8 7 9 10 8 8 9 9 8 10 9 7 8 8 7 7 7 7 7 7 8 8 8 7 7 7 6 6 6 6 7 8 8 7 8 9 9 9 11 10 8 8 7 7 7 5 5 4 3 4 4 4 5 4
9 11 7 9 1 3 10 3 3 3 3 5 5 6 5 7 7 5 5 6 8 7 4 2 3 4 4 5 3 2 3 3 3 4 6 5 7 9 8 7 7 7 6 7 6 8 9 6 8 9 9 8 8 7 5 6 6 6 6 5 5 5 5 5 5 4 4 5 4 3 3 2 2 2 2 1 2 3 3 4 6 8 8 8 8 9 9 9 10 10 7 4 4 4 3 5 6
9 11 7 9 3 4 13 9 7 3 2 6 4 6 7 8 7 3 3 3 7 8 6 4 4 5 5 7 4 4 4 3 3 2 4 6 3 4 7 7 8 8 6 5 4 6 8 6 8 7 6 7 6 5 5 6 5 5 5 4 5 4 4 4 5 4 4 5 4 3 4 4 3 3 4 3 2 2 2 2 1 2 2 3 4 5 6 6 8 12 14 10 5 3 4 4 5
-7 -0 11 13 3 3 8 5 9 6 3 8 6 8 7 6 4 2 3 4 8 7 6 5 4 5 4 5 5 5 3 2 4 3 4 6 4 4 3 3 6 8 7 5 4 7 7 6 5 4 5 5 4 5 6 8 6 5 4 4 5 4 5 5 5 5 4 5 5 5 5 5 4 5 8 7 5 5 6 5 4 4 4 4 4 5 4 4 4 6 14 18 13 5 4 4 3
7 4 9 3 -3 1 7 7 13 9 6 10 9 9 7 4 3 4 5 4 6 5 4 4 4 5 3 4 4 5 5 3 4 4 5 5 6 7 4 5 5 6 9 7 7 9 8 9 9 8 11 8 6 8 6 5 5 5 5 5 5 4 4 5 5 5 5 5 6 7 7 8 6 4 6 5 5 5 5 5 6 6 7 7 7 6 6 6 5 4 7 16 19 12 8 6 3
9 11 3 -4 -1 3 9 11 13 10 10 11 9 11 8 6 7 7 7 5 7 7 5 4 4 5 4 5 4 4 5 4 4 3 5 5 7 9 5 6 6 5 9 7 6 9 8 9 11 10 12 10 10 13 11 10 10 6 4 3 3 4 5 5 5 5 7 7 5 5 6 8 7 5 6 4 5 5 4 6 7 6 5 6 6 6 7 5 6 7 6 8 14 17 16 13 8
-8 16 10 1 7 7 11 12 11 11 7 5 5 8 9 8 9 6 5 7 8 7 9 7 4 4 4 5 4 4 3 3 4 3 4 4 6 9 8 8 7 6 7 5 0 3 6 3 5 4 3 4 4 7 10 12 14 13 9 6 5 4 5 5 4 5 5 6 6 6 6 5 3 4 4 4 6 5 5 4 6 7 4 3 5 4 6 6 6 8 6 4 7 11 13 13 12
-3 16 8 2 9 8 9 10 11 10 4 3 5 7 9 8 9 10 6 7 10 9 11 12 9 6 5 5 4 4 4 4 4 4 3 3 5 7 8 10 9 7 7 8 3 1 4 2 3 3 0 2 1 2 3 2 7 11 11 11 10 6 5 3 2 2 1 3 7 8 8 7 4 4 3 4 6 6 6 5 4 7 5 4 4 3 4 5 7 7 5 4 4 4 5 8 9
7 14 7 6 11 7 5 10 10 8 6 5 6 8 11 9 9 12 8 8 11 9 10 12 10 8 8 6 5 6 5 5 5 5 4 4 5 5 7 8 8 7 6 8 6 2 3 2 3 3 2 1 -0 2 1 -0 3 4 6 8 8 7 4 2 1 1 1 3 5 6 8 9 9 7 6 7 7 7 6 6 4 4 5 5 5 5 5 5 5 6 6 6 5 4 3 5 6
12 6 6 7 7 8 8 10 8 6 7 6 8 10 10 10 10 10 8 7 8 7 9 9 6 7 8 7 6 6 5 5 6 5 5 6 5 6 7 6 5 6 5 6 5 3 3 2 2 3 3 2 1 2 1 2 4 3 5 5 5 6 4 3 3 3 4 5 6 6 5 7 6 4 4 6 6 7 8 9 7 4 3 4 4 5 6 6 5 5 5 6 7 7 5 3 4
15 3 7 8 4 9 8 4 4 6 6 7 10 11 9 10 9 9 9 6 7 7 7 8 7 8 8 7 7 6 5 5 6 5 5 5 6 6 6 6 5 5 6 6 6 5 5 4 4 4 5 6 6 7 7 7 8 8 6 5 5 6 5 6 6 6 6 6 7 6 5 8 8 5 5 5 4 8 12 14 13 12 8 4 2 2 4 6 6 6 4 4 6 7 8 6 4
6 6 7 5 5 7 9 4 3 7 7 9 11 11 9 6 6 9 11 7 8 8 7 8 8 9 8 8 8 7 7 7 7 7 6 6 6 6 6 6 6 6 6 6 7 8 8 7 6 8 9 10 12 12 14 16 16 16 12 9 7 6 7 7 6 6 6 6 7 6 7 9 8 9 9 8 8 8 7 8 10 15 12 6 6 4 4 7 7 6 6 5 6 6 7 8 6
-5 7 5 4 7 2 7 4 2 6 6 9 13 11 6 2 5 8 9 7 7 7 7 8 7 8 9 7 8 8 8 8 8 8 8 8 7 7 6 6 6 7 7 8 10 11 11 13 11 11 12 11 12 12 13 15 15 16 14 12 10 9 8 8 7 6 7 6 6 6 6 6 5 6 7 6 9 6 3 4 6 11 9 6 11 11 6 7 8 7 7 7 6 6 6 7 7
1 5 3 3 5 0 8 5 2 5 3 9 13 12 6 2 5 8 11 10 8 8 7 7 6 7 8 8 8 8 8 8 9 8 8 9 9 9 7 7 8 7 8 8 9 10 11 13 12 11 10 9 7 8 8 8 9 10 10 10 9 9 8 7 8 7 7 7 6 7 6 6 5 4 5 5 6 5 4 6 6 7 7 4 8 11 7 7 7 7 9 10 8 8 7 7 7
3 5 5 5 4 1 8 6 4 1 -3 9 12 5 5 4 5 5 8 10 8 8 8 7 6 6 6 7 8 7 8 8 8 8 8 8 9 9 7 6 7 5 6 6 5 6 6 7 8 8 8 7 6 6 7 6 7 7 6 7 6 6 7 7 8 8 9 9 9 10 9 8 7 6 7 8 7 8 7 7 7 8 8 6 5 7 11 12 7 6 10 12 11 10 8 7 6
3 6 5 4 5 5 8 4 5 6 -0 9 12 5 7 8 6 3 3 7 9 9 9 6 5 7 7 7 8 7 8 8 8 8 7 8 7 7 6 5 5 5 5 6 6 6 6 6 7 8 7 6 7 6 6 7 7 7 7 7 7 7 7 7 7 8 8 8 9 8 8 8 8 8 8 8 8 8 8 7 8 9 8 7 7 8 13 14 8 7 9 6 10 15 12 8 5
6 2 3 6 4 -1 4 6 7 11 4 7 11 6 9 9 6 4 2 3 4 7 10 7 5 8 9 7 7 7 6 7 7 7 6 5 5 5 5 5 5 6 6 6 7 7 7 7 7 7 7 6 6 6 6 6 6 6 6 6 6 6 6 6 5 5 5 5 6 6 6 6 7 7 7 8 7 6 8 8 8 9 8 6 9 11 10 10 9 12 10 1 6 16 14 13 8
3 -3 2 10 8 -9 -6 7 9 9 2 7 9 -3 1 11 8 3 2 3 1 4 7 7 7 8 10 7 6 6 4 6 6 5 6 5 5 5 5 5 5 6 7 7 7 8 7 7 7 6 6 6 5 5 5 5 5 5 6 5 5 5 5 5 5 5 5 5 6 6 6 6 6 7 7 7 7 7 7 7 8 8 9 9 9 10 7 7 8 12 14 7 5 11 12 13 13
0 4 7 3 6 -3 -3 5 5 5 2 8 13 3 3 9 10 4 2 4 1 3 5 5 9 8 8 7 6 6 2 6 8 5 6 5 5 6 5 5 6 7 7 7 7 7 6 5 5 5 6 5 4 5 5 5 7 6 7 7 7 7 7 7 7 6 7 7 7 7 9 10 9 9 9 8 7 8 6 5 7 7 10 12 8 7 8 6 6 8 12 12 7 10 12 8 11
0 11 15 1 1 4 4 4 3 6 3 4 9 7 6 5 8 7 4 5 1 2 5 5 8 6 6 6 6 8 5 6 8 6 6 6 6 6 6 6 6 7 7 7 8 6 6 4 4 5 5 5 4 4 5 6 8 8 8 8 9 9 9 8 8 8 8 8 8 9 12 11 9 9 9 9 8 8 8 7 8 7 9 13 10 8 8 6 7 8 9 12 10 13 13 6 9
0 7 10 -1 2 4 -1 -1 2 6 4 4 6 1 1 6 9 5 5 6 1 2 4 4 6 4 5 5 4 7 7 5 7 8 7 6 7 6 6 7 5 6 6 7 8 7 6 4 4 5 6 5 4 4 6 8 8 8 9 8 8 8 8 9 8 8 9 9 9 10 12 10 9 10 9 9 10 9 10 9 10 10 10 13 10 10 12 7 5 8 9 9 10 12 10 5 6
7 11 2 1 13 9 2 5 4 5 5 4 6 3 2 8 9 3 4 7 3 3 4 4 5 4 3 3 3 5 6 6 6 6 6 5 7 6 5 6 5 5 7 8 8 8 7 6 5 6 6 4 2 3 5 6 7 8 8 7 8 7 7 7 7 8 8 8 9 8 10 11 11 12 10 9 11 11 11 9 10 9 9 11 9 10 14 8 3 11 14 7 8 13 13 12 8
14 13 2 7 13 -1 -2 7 2 3 9 5 5 5 2 5 8 5 3 5 4 3 3 4 4 3 4 3 2 3 4 7 7 5 5 6 6 6 6 6 7 7 8 9 9 9 7 5 6 6 7 4 1 2 2 4 6 6 7 6 6 7 7 7 7 7 7 7 8 8 8 10 11 12 11 9 10 11 11 10 10 9 9 9 9 10 10 7 9 14 13 10 12 10 10 16 12
8 10 8 5 6 4 5 5 0 3 9 8 6 5 3 3 6 6 4 4 5 3 1 4 6 4 4 4 2 3 3 6 9 8 6 7 7 6 7 8 8 8 8 9 9 9 8 6 7 6 6 5 4 4 2 2 4 5 7 6 6 7 7 8 7 7 7 7 7 7 7 7 8 9 10 9 6 6 7 7 8 8 8 8 9 9 8 9 13 12 7 12 17 9 6 13 10
0 6 12 1 3 14 10 -0 2 12 12 6 4 5 6 5 4 4 4 3 5 5 -0 1 7 6 5 5 4 1 1 3 8 10 8 8 8 7 7 7 8 9 9 9 7 6 5 2 1 2 4 7 8 7 5 2 2 3 5 6 7 7 7 8 8 6 6 5 6 7 7 6 6 6 7 8 8 6 5 5 5 6 6 7 8 8 9 9 11 11 7 11 14 10 10 12 8
1 5 11 5 5 5 1 -5 -2 11 12 6 8 8 5 5 4 4 6 4 3 5 1 0 4 6 5 5 6 3 -0 2 5 8 11 8 7 6 5 5 7 10 12 12 11 8 5 2 3 5 7 9 10 10 9 7 5 3 3 6 7 7 7 8 7 6 6 4 4 5 6 5 5 5 4 5 6 6 6 6 6 7 7 7 8 9 11 10 11 12 8 10 11 11 12 9 8
5 11 5 4 6 -0 4 5 -0 7 11 6 7 7 6 6 4 2 6 6 5 5 3 5 4 3 6 5 5 6 3 5 5 6 10 8 6 5 4 5 6 7 8 9 10 9 7 6 7 8 8 8 8 9 10 10 9 7 4 4 6 7 6 6 7 7 6 4 3 4 4 4 4 4 4 3 4 5 5 5 5 6 7 7 8 10 12 13 15 11 13 19 13 9 11 8 10
7 12 -1 2 5 -0 9 9 -1 3 7 6 4 4 6 6 6 6 5 3 6 7 4 8 5 -0 6 7 3 4 3 6 6 4 6 7 6 5 3 4 4 3 4 4 4 5 5 5 5 5 5 6 6 7 7 9 10 10 7 3 3 6 6 6 7 7 7 5 4 3 3 4 4 3 4 3 4 5 4 5 5 5 6 7 7 8 10 14 17 14 18 22 10 8 12 9 11
4 6 2 7 4 1 11 8 3 5 8 15 12 6 6 5 10 10 3 4 4 3 3 4 5 2 6 8 5 5 2 3 6 4 3 4 6 6 3 2 2 2 2 2 2 2 2 3 3 4 4 4 5 6 7 9 11 11 9 6 3 4 7 7 7 7 7 6 5 5 3 4 4 3 4 4 4 5 5 5 6 6 6 7 7 8 9 12 18 20 19 15 7 11 15 11 11
0 8 12 14 5 -0 5 3 11 14 9 14 6 1 7 2 9 11 4 8 3 -1 5 4 2 5 9 8 4 6 5 2 3 4 3 3 4 5 3 2 2 3 3 2 2 2 2 2 3 3 3 3 4 6 7 8 11 12 11 9 5 3 5 8 9 8 7 7 7 7 5 5 4 4 4 4 4 5 5 5 6 6 6 7 8 9 11 12 17 22 19 15 13 14 14 13 14
2 9 4 10 8 1 3 2 9 9 3 5 -7 -0 14 -0 2 13 5 3 1 1 10 10 2 0 6 8 3 5 7 4 2 2 4 4 3 3 3 2 2 2 3 3 2 2 2 2 3 3 2 2 3 4 7 8 10 12 11 10 7 4 3 5 8 9 8 7 7 7 7 6 5 5 4 4 5 5 5 6 6 7 7 9 10 10 11 12 16 20 19 17 16 14 12 14 15
15 14 -13 -6 7 7 12 8 3 3 9 11 -3 2 16 6 7 11 3 5 6 4 6 7 5 2 6 9 4 3 6 6 4 1 4 5 4 3 3 3 2 2 2 2 2 2 2 2 3 4 3 1 2 3 5 8 10 11 11 11 10 7 4 3 6 8 8 7 7 7 7 6 5 5 4 4 4 5 6 6 6 8 8 9 11 11 11 12 15 20 21 15 12 14 13 12 13
18 27 -1 2 15 15 15 9 5 7 10 11 13 15 11 8 11 4 7 16 8 2 5 6 5 2 7 9 5 5 4 5 6 2 3 4 4 4 3 3 2 1 2 1 1 2 2 3 3 5 4 2 2 2 3 6 8 10 10 10 10 9 6 4 5 7 8 8 7 7 6 5 5 3 3 4 3 4 6 5 6 7 8 10 11 12 12 12 14 18 19 14 11 13 13 13 12
4 21 11 12 13 8 7 6 6 9 6 3 17 25 7 3 13 3 5 17 14 9 6 7 8 3 5 9 7 6 3 4 6 3 3 3 3 4 3 3 2 1 2 1 2 2 2 3 3 5 6 4 2 2 2 3 6 8 8 8 9 10 8 6 6 6 7 8 8 8 6 5 4 3 3 3 3 4 5 6 7 8 10 11 12 13 12 12 13 15 17 14 12 12 12 13 12
5 11 8 9 2 1 11 11 3 7 14 11 15 22 6 -1 15 12 -4 1 22 27 9 2 8 5 5 9 9 6 3 3 3 2 3 2 3 4 3 4 3 2 3 3 3 3 3 3 3 4 6 5 4 3 3 3 4 5 6 7 8 10 10 9 7 6 6 8 9 8 7 6 5 5 4 3 3 3 4 5 6 7 10 11 12 13 13 12 11 12 15 14 13 13 12 12 11
10 10 4 4 1 -1 9 11 3 3 12 15 13 15 8 -3 4 12 -0 -8 -1 0 -2 3 5 4 7 9 8 8 7 7 4 3 3 1 1 2 2 3 2 2 4 6 5 4 3 4 3 4 5 5 5 4 4 4 4 4 4 6 7 8 11 10 8 6 5 8 10 9 8 6 5 4 4 3 2 3 3 4 5 7 8 10 12 14 14 14 12 11 13 14 15 15 14 12 11
10 13 2 2 8 -0 -0 9 9 6 10 16 8 -3 1 5 4 7 12 13 5 -7 1 14 10 8 11 8 8 9 8 8 6 6 7 2 0 1 0 2 2 2 4 6 7 5 3 4 4 5 5 5 6 5 5 6 5 4 3 4 5 7 10 11 9 6 5 8 10 9 8 6 5 4 3 3 2 3 4 4 5 6 8 10 12 14 14 14 14 12 11 13 16 16 15 13 10
2 12 8 2 9 2 0 8 7 7 11 12 7 2 11 20 15 10 12 16 14 8 10 12 8 9 10 9 12 11 8 8 7 7 8 5 2 2 2 3 3 3 4 4 6 5 4 4 5 5 5 4 5 5 5 6 7 5 4 3 4 6 8 10 9 7 6 7 9 10 9 7 5 4 3 2 3 4 4 4 5 6 8 10 12 13 14 14 15 13 12 13 15 15 14 13 10
-3 10 19 5 7 8 2 3 5 14 11 -7 -6 12 21 18 14 16 19 15 9 11 13 10 7 8 9 9 11 11 10 11 10 9 12 10 7 6 5 4 4 4 5 3 3 5 4 4 5 5 5 4 4 4 5 6 7 7 5 3 3 5 8 9 8 7 6 6 9 11 10 8 6 5 3 3 3 4 4 5 6 7 8 9 12 13 13 13 14 14 14 13 12 12 13 14 13
-4 14 27 7 6 9 4 8 11 18 19 2 -1 11 13 10 7 2 1 1 2 8 12 11 10 7 5 4 4 6 8 10 12 12 15 15 9 8 8 5 6 7 6 5 5 7 6 4 5 5 4 4 3 4 4 5 7 8 7 4 3 5 7 8 7 7 6 7 9 11 10 9 7 6 4 4 4 4 5 5 6 8 8 9 12 12 13 14 14 15 15 13 11 10 10 11 13
-11 11 23 10 7 2 3 17 14 6 11 14 12 12 8 10 14 7 3 8 15 16 8 5 11 8 2 1 1 5 6 7 10 11 15 17 11 10 11 10 11 11 9 9 8 8 6 5 5 5 5 4 3 3 3 5 6 8 9 6 3 5 6 7 7 7 8 8 9 11 11 9 8 7 5 4 4 5 6 6 7 8 9 9 12 12 13 15 16 15 14 14 12 9 8 8 9
-13 -4 4 11 13 4 4 11 11 6 3 7 10 10 10 13 15 12 12 17 20 18 10 6 12 13 7 5 5 7 7 7 9 8 12 15 10 10 12 11 11 11 9 9 7 7 7 5 5 5 5 4 4 3 2 4 6 9 10 7 4 6 6 6 7 7 8 9 10 11 10 9 8 7 6 4 4 5 6 6 8 10 9 9 11 13 13 16 18 16 15 16 14 10 9 8 7
2 -2 -7 3 8 6 9 8 11 10 -0 3 9 5 5 9 8 -2 -11 -10 -8 -1 8 9 10 12 9 9 9 10 10 7 6 7 10 8 4 6 7 6 7 7 7 7 6 6 6 4 6 6 5 5 3 3 2 4 7 9 10 8 5 6 6 6 6 7 8 9 9 10 10 10 8 7 6 5 4 6 6 7 10 10 9 9 11 14 14 17 19 16 16 18 16 12 11 9 8
7 10 -3 -2 -0 -2 4 6 9 6 -2 6 11 7 8 6 3 -1 -9 -7 -4 1 7 6 7 10 8 9 10 8 8 7 5 9 12 5 1 5 7 6 7 7 7 6 5 6 6 6 8 6 4 5 4 3 3 4 7 10 10 8 6 6 5 5 6 6 8 9 9 9 9 9 8 7 5 5 6 6 6 9 11 9 9 11 12 15 16 17 18 16 17 19 18 16 14 11 11
Height
5912 5911 5911 5912 5912 5911 5911 5909 5909 5911 5913 5912 5912 5912 5911 5911 5911 5911 5910 5909 5909 5908 5908 5908 5908 5908 5908 5908 5908 5908 5909 5909 5909 5910 5911 5910 5910 5910 5910 5911 5911 5911 5912 5911 5910 5909 5909 5909 5909 5908 5908 5914 5916 5913 5913 5914 5913 5912 5912 5913 5913 5914 5914 5914 5914 5914 5914 5914 5914 5914 5915 5916 5917 5917 5917 5918 5918 5917 5917 5917 5917 5917 5917 5917 5917 5917 5917 5917 5917 5917 5917 5917 5917 5916 5916 5916 5915
5914 5913 5913 5913 5913 5913 5912 5910 5912 5915 5914 5913 5913 5914 5913 5913 5913 5913 5912 5912 5911 5910 5909 5909 5909 5909 5909 5909 5910 5910 5909 5909 5910 5912 5912 5912 5912 5912 5912 5913 5913 5913 5913 5912 5911 5911 5911 5911 5910 5910 5911 5915 5918 5916 5915 5915 5914 5914 5914 5914 5915 5915 5915 5915 5915 5915 5915 5915 5915 5915 5916 5916 5917 5917 5918 5918 5918 5918 5918 5918 5918 5918 5918 5918 5919 5919 5919 5919 5919 5918 5918 5917 5917 5917 5917 5917 5916
5916 5915 5915 5915 5914 5913 5912 5913 5915 5916 5915 5915 5914 5915 5915 5915 5915 5914 5914 5914 5913 5912 5911 5911 5911 5911 5910 5911 5911 5911 5911 5911 5912 5913 5913 5913 5913 5913 5913 5914 5914 5914 5914 5913 5912 5912 5912 5912 5912 5912 5914 5917 5918 5917 5917 5916 5916 5916 5916 5916 5916 5917 5917 5917 5917 5917 5917 5916 5916 5917 5917 5917 5918 5918 5918 5918 5918 5918 5918 5918 5918 5919 5920 5920 5921 5921 5921 5920 5920 5919 5919 5918 5918 5918 5918 5918 5918
5917 5917 5917 5917 5916 5913 5914 5917 5918 5917 5917 5916 5916 5916 5917 5917 5916 5916 5916 5915 5914 5914 5913 5913 5913 5913 5912 5913 5912 5913 5913 5913 5913 5914 5915 5914 5914 5914 5914 5915 5915 5916 5915 5914 5914 5914 5914 5914 5914 5914 5916 5917 5917 5918 5918 5918 5917 5917 5917 5917 5917 5918 5918 5918 5918 5918 5918 5918 5918 5918 5918 5919 5919 5919 5919 5919 5919 5919 5918 5918 5919 5920 5921 5921 5922 5922 5922 5921 5921 5920 5920 5919 5919 5918 5918 5918 5918
5918 5918 5918 5919 5917 5914 5917 5919 5919 5919 5918 5918 5918 5918 5918 5918 5918 5918 5917 5916 5916 5915 5915 5915 5915 5914 5914 5914 5914 5914 5914 5914 5914 5914 5915 5916 5915 5915 5916 5916 5916 5917 5916 5916 5916 5916 5916 5916 5915 5916 5917 5917 5917 5918 5919 5919 5919 5919 5919 5918 5919 5919 5919 5920 5920 5920 5920 5920 5920 5920 5920 5920 5920 5920 5920 5920 5919 5919 5919 5919 5920 5921 5922 5922 5922 5922 5922 5921 5921 5920 5920 5920 5919 5919 5919 5919 5919
5919 5919 5918 5920 5918 5916 5920 5921 5920 5920 5919 5920 5920 5920 5920 5919 5919 5919 5918 5918 5917 5916 5916 5916 5916 5916 5916 5915 5915 5915 5916 5915 5916 5916 5916 5916 5916 5916 5916 5917 5917 5917 5917 5917 5918 5918 5918 5917 5917 5918 5918 5917 5917 5918 5919 5919 5920 5920 5920 5919 5920 5920 5920 5921 5921 5921 5921 5921 5921 5921 5921 5921 5921 5921 5921 5920 5920 5920 5920 5920 5921 5922 5922 5922 5922 5921 5921 5920 5920 5920 5920 5920 5920 5920 5920 5920 5920
5921 5920 5920 5920 5919 5919 5922 5922 5921 5922 5921 5922 5921 5921 5921 5921 5920 5919 5919 5919 5918 5918 5917 5917 5917 5917 5917 5916 5916 5916 5917 5916 5916 5917 5916 5916 5916 5917 5917 5917 5918 5918 5918 5918 5919 5919 5919 5919 5919 5919 5919 5919 5918 5918 5919 5919 5920 5921 5921 5921 5921 5921 5921 5922 5922 5922 5922 5922 5922 5922 5922 5922 5922 5922 5921 5921 5921 5921 5921 5922 5922 5922 5922 5922 5921 5921 5920 5920 5920 5920 5920 5920 5920 5920 5920 5921 5921
5922 5922 5922 5921 5921 5923 5925 5924 5923 5923 5923 5923 5923 5923 5922 5922 5921 5920 5920 5920 5919 5919 5919 5918 5918 5919 5918 5917 5917 5917 5917 5918 5918 5917 5917 5917 5917 5917 5918 5918 5919 5919 5919 5920 5920 5920 5920 5920 5920 5921 5921 5920 5920 5920 5920 5920 5921 5922 5922 5922 5922 5922 5922 5923 5923 5923 5923 5923 5923 5923 5923 5922 5922 5922 5922 5922 5922 5922 5922 5922 5922 5922 5922 5922 5921 5921 5921 5920 5920 5920 5920 5920 5920 5920 5921 5921 5921
5924 5924 5923 5923 5925 5927 5927 5925 5925 5925 5925 5924 5924 5924 5923 5923 5922 5921 5921 5921 5921 5920 5919 5919 5919 5920 5919 5918 5918 5918 5918 5919 5919 5918 5918 5918 5918 5918 5919 5919 5920 5920 5921 5921 5921 5921 5921 5922 5922 5922 5922 5922 5922 5921 5921 5921 5922 5922 5922 5922 5922 5922 5923 5923 5924 5924 5924 5924 5923 5923 5923 5922 5922 5922 5922 5922 5922 5922 5922 5922 5922 5922 5922 5922 5921 5921 5920 5920 5920 5920 5920 5920 5920 5920 5921 5921 5922
5925 5925 5924 5926 5928 5928 5928 5927 5927 5926 5926 5926 5925 5925 5924 5923 5923 5923 5923 5922 5922 5921 5921 5920 5920 5920 5919 5919 5919 5919 5920 5920 5920 5920 5919 5919 5919 5919 5920 5920 5921 5922 5922 5922 5922 5922 5922 5923 5923 5922 5923 5923 5923 5923 5923 5923 5923 5923 5922 5922 5922 5923 5923 5923 5924 5924 5924 5924 5924 5923 5923 5923 5923 5923 5922 5922 5922 5922 5922 5923 5922 5922 5922 5922 5922 5921 5920 5921 5920 5920 5920 5920 5919 5920 5920 5921 5921
5925 5924 5926 5929 5930 5929 5930 5929 5928 5928 5927 5927 5926 5926 5925 5924 5924 5924 5924 5924 5923 5922 5922 5921 5921 5920 5919 5919 5919 5920 5920 5921 5921 5921 5921 5921 5921 5921 5921 5921 5922 5923 5923 5923 5923 5923 5923 5923 5923 5923 5923 5924 5924 5924 5924 5924 5924 5923 5923 5923 5923 5923 5923 5924 5924 5924 5924 5924 5924 5924 5924 5924 5924 5923 5923 5923 5922 5923 5923 5923 5923 5923 5922 5922 5922 5921 5921 5921 5920 5920 5920 5920 5920 5920 5920 5920 5921
5925 5926 5930 5932 5931 5931 5932 5931 5930 5929 5929 5928 5928 5927 5926 5926 5926 5925 5925 5925 5924 5924 5923 5922 5921 5920 5920 5920 5920 5920 5921 5921 5922 5922 5922 5922 5922 5922 5922 5922 5922 5923 5924 5924 5925 5925 5925 5925 5925 5925 5925 5925 5925 5925 5925 5925 5925 5924 5923 5924 5924 5924 5924 5924 5925 5925 5925 5925 5925 5924 5924 5924 5924 5923 5923 5923 5923 5923 5923 5923 5923 5923 5923 5923 5922 5921 5921 5921 5920 5920 5920 5920 5920 5920 5920 5920 5921
5925 5928 5933 5933 5933 5933 5933 5932 5931 5930 5930 5929 5929 5928 5928 5928 5927 5927 5926 5926 5925 5925 5924 5923 5922 5921 5921 5921 5921 5921 5922 5922 5922 5922 5923 5923 5923 5923 5923 5923 5923 5924 5924 5925 5925 5925 5926 5926 5926 5926 5926 5926 5926 5926 5927 5926 5926 5925 5924 5924 5925 5925 5925 5925 5925 5925 5925 5925 5925 5925 5925 5924 5924 5923 5922 5922 5922 5922 5923 5923 5922 5922 5923 5922 5922 5921 5921 5921 5920 5920 5920 5920 5920 5920 5920 5920 5920
5927 5929 5935 5935 5935 5935 5934 5934 5933 5932 5931 5930 5930 5930 5929 5929 5928 5928 5927 5927 5926 5925 5925 5925 5924 5922 5921 5922 5922 5922 5923 5923 5923 5924 5923 5924 5923 5923 5923 5923 5924 5924 5924 5925 5925 5926 5926 5926 5927 5927 5927 5927 5927 5928 5928 5927 5926 5926 5926 5926 5926 5926 5926 5926 5926 5926 5926 5926 5925 5925 5925 5924 5923 5923 5922 5922 5922 5922 5922 5922 5921 5922 5923 5922 5921 5921 5921 5921 5920 5920 5921 5920 5920 5920 5920 5920 5921
5929 5929 5935 5938 5937 5936 5935 5935 5934 5933 5932 5931 5931 5931 5930 5930 5929 5928 5928 5928 5927 5927 5926 5925 5924 5924 5923 5922 5923 5923 5923 5924 5924 5924 5924 5924 5924 5924 5924 5924 5924 5924 5925 5925 5926 5926 5926 5927 5927 5927 5927 5928 5928 5928 5927 5927 5927 5927 5927 5927 5927 5927 5927 5927 5926 5926 5926 5926 5925 5925 5924 5923 5923 5922 5922 5922 5921 5922 5922 5921 5922 5922 5922 5922 5921 5921 5921 5921 5920 5920 5920 5920 5920 5920 5920 5920 5920
5931 5930 5936 5940 5940 5938 5936 5935 5935 5933 5933 5932 5932 5931 5931 5931 5930 5929 5929 5928 5928 5928 5927 5926 5925 5925 5924 5923 5923 5923 5924 5924 5924 5925 5925 5925 5925 5925 5925 5925 5925 5925 5925 5925 5926 5926 5926 5927 5927 5927 5927 5927 5927 5927 5927 5927 5927 5927 5927 5927 5928 5928 5927 5927 5927 5926 5926 5926 5925 5924 5924 5923 5923 5923 5922 5922 5922 5922 5922 5922 5922 5923 5922 5922 5921 5921 5921 5920 5920 5920 5920 5920 5920 5920 5920 5920 5920
5931 5932 5938 5941 5941 5940 5937 5936 5935 5934 5933 5932 5932 5932 5932 5931 5930 5930 5929 5929 5929 5928 5928 5928 5927 5926 5925 5924 5924 5924 5925 5925 5925 5925 5925 5926 5926 5926 5926 5926 5926 5926 5926 5926 5927 5927 5927 5927 5928 5928 5928 5928 5928 5928 5928 5928 5928 5928 5928 5928 5928 5928 5928 5927 5927 5927 5926 5926 5925 5925 5924 5924 5924 5923 5923 5922 5922 5923 5923 5922 5922 5923 5923 5922 5921 5921 5921 5920 5919 5919 5919 5919 5919 5919 5919 5919 5919
5932 5936 5941 5942 5942 5940 5938 5937 5935 5934 5934 5933 5933 5932 5932 5931 5931 5931 5930 5930 5930 5929 5928 5928 5928 5927 5926 5926 5925 5925 5925 5925 5926 5926 5926 5926 5926 5927 5927 5927 5927 5927 5927 5927 5928 5928 5928 5928 5928 5929 5928 5929 5929 5929 5929 5929 5929 5929 5929 5929 5928 5928 5928 5928 5927 5927 5926 5926 5926 5926 5925 5925 5924 5924 5924 5924 5922 5922 5923 5922 5922 5923 5923 5922 5922 5921 5921 5920 5919 5919 5919 5919 5918 5918 5918 5918 5918
5934 5939 5942 5941 5941 5939 5937 5936 5935 5935 5934 5934 5933 5932 5932 5931 5931 5931 5930 5931 5930 5930 5929 5929 5929 5928 5927 5927 5927 5926 5926 5926 5927 5927 5927 5927 5927 5927 5928 5928 5928 5928 5928 5928 5928 5929 5929 5929 5929 5929 5929 5929 5930 5930 5930 5930 5930 5929 5929 5929 5928 5928 5928 5927 5927 5926 5926 5926 5926 5925 5925 5925 5925 5925 5925 5924 5922 5921 5922 5922 5922 5923 5923 5922 5921 5921 5921 5920 5919 5919 5918 5918 5917 5917 5917 5917 5917
5936 5941 5942 5939 5938 5937 5937 5936 5935 5935 5935 5934 5934 5933 5933 5932 5932 5931 5931 5931 5930 5930 5930 5929 5929 5928 5928 5928 5928 5927 5927 5927 5927 5927 5928 5928 5928 5929 5929 5929 5929 5929 5929 5928 5929 5929 5929 5929 5929 5929 5930 5930 5930 5930 5930 5930 5930 5930 5929 5929 5928 5928 5927 5927 5926 5926 5925 5925 5926 5925 5925 5925 5924 5924 5924 5922 5921 5921 5921 5921 5922 5922 5922 5921 5920 5920 5920 5920 5919 5919 5918 5917 5917 5916 5917 5916 5916
5939 5941 5941 5939 5937 5937 5936 5936 5935 5935 5935 5935 5934 5934 5933 5932 5932 5931 5931 5931 5931 5931 5930 5930 5929 5928 5929 5929 5928 5928 5928 5928 5928 5928 5928 5928 5929 5929 5930 5929 5929 5929 5929 5928 5929 5929 5929 5929 5929 5930 5930 5930 5930 5931 5931 5930 5930 5930 5929 5928 5928 5928 5927 5927 5926 5925 5924 5923 5925 5925 5925 5923 5922 5922 5922 5922 5921 5919 5919 5920 5921 5921 5920 5920 5920 5919 5919 5919 5919 5918 5917 5916 5916 5916 5916 5916 5915
5940 5939 5938 5938 5937 5937 5936 5936 5936 5935 5936 5936 5935 5934 5933 5932 5932 5931 5931 5931 5931 5931 5931 5930 5929 5928 5929 5929 5929 5929 5929 5929 5929 5929 5929 5929 5929 5929 5930 5930 5929 5930 5929 5928 5929 5929 5929 5930 5930 5930 5930 5930 5931 5931 5931 5930 5930 5929 5929 5928 5928 5928 5927 5926 5926 5925 5924 5923 5923 5923 5923 5922 5921 5921 5922 5921 5920 5918 5917 5917 5918 5919 5919 5919 5919 5918 5917 5917 5918 5917 5915 5915 5915 5915 5915 5915 5915
5940 5938 5937 5938 5937 5937 5936 5936 5936 5936 5936 5936 5936 5935 5934 5932 5932 5932 5931 5931 5931 5931 5931 5930 5929 5929 5929 5929 5929 5929 5929 5929 5929 5929 5929 5929 5929 5929 5930 5930 5929 5929 5929 5929 5930 5930 5930 5930 5930 5930 5930 5930 5930 5930 5930 5930 5929 5929 5928 5928 5928 5927 5927 5926 5926 5925 5924 5924 5922 5922 5921 5921 5921 5921 5920 5920 5919 5917 5916 5915 5915 5916 5917 5918 5917 5917 5916 5916 5916 5915 5914 5914 5914 5914 5914 5914 5914
5939 5937 5937 5937 5937 5937 5936 5936 5936 5936 5936 5936 5936 5935 5934 5933 5932 5932 5931 5931 5931 5931 5930 5930 5930 5929 5929 5930 5930 5930 5930 5930 5930 5930 5929 5929 5929 5929 5929 5930 5929 5929 5929 5929 5929 5929 5930 5930 5930 5930 5930 5930 5930 5930 5930 5929 5928 5928 5928 5927 5927 5927 5926 5926 5925 5925 5924 5923 5922 5921 5921 5920 5920 5920 5919 5918 5918 5917 5915 5914 5913 5913 5914 5915 5915 5915 5914 5913 5913 5912 5912 5913 5913 5913 5913 5913 5913
5938 5937 5938 5937 5937 5937 5936 5936 5936 5937 5937 5937 5937 5935 5934 5933 5933 5932 5932 5932 5931 5931 5931 5930 5930 5929 5930 5930 5930 5930 5930 5930 5930 5930 5930 5930 5930 5930 5930 5930 5930 5929 5929 5929 5929 5929 5929 5930 5929 5929 5929 5930 5930 5929 5929 5928 5927 5927 5927 5926 5926 5926 5925 5925 5924 5924 5923 5922 5921 5920 5920 5919 5918 5918 5917 5916 5916 5915 5914 5913 5912 5911 5911 5911 5912 5912 5911 5910 5910 5909 5910 5910 5911 5911 5911 5911 5912
5937 5937 5937 5937 5937 5937 5937 5937 5937 5937 5937 5937 5937 5936 5935 5934 5934 5932 5932 5932 5931 5931 5931 5931 5931 5930 5930 5930 5930 5930 5930 5930 5930 5930 5930 5930 5930 5930 5930 5930 5930 5930 5929 5929 5929 5929 5929 5929 5929 5929 5929 5929 5929 5928 5927 5926 5926 5926 5926 5925 5925 5925 5924 5924 5923 5922 5922 5921 5920 5919 5919 5918 5917 5916 5915 5914 5914 5913 5912 5912 5911 5910 5909 5909 5910 5910 5910 5909 5908 5908 5908 5908 5909 5909 5909 5909 5909
5937 5937 5937 5937 5937 5937 5938 5937 5938 5938 5938 5938 5937 5936 5935 5935 5935 5934 5933 5932 5932 5932 5932 5932 5931 5931 5931 5931 5931 5930 5930 5930 5930 5930 5930 5930 5930 5930 5930 5930 5930 5930 5930 5929 5929 5929 5929 5929 5929 5929 5929 5929 5928 5927 5926 5925 5925 5925 5925 5925 5924 5924 5923 5923 5922 5921 5921 5920 5919 5919 5918 5917 5915 5915 5914 5913 5912 5911 5911 5911 5910 5909 5908 5908 5908 5908 5909 5908 5907 5907 5907 5907 5907 5907 5907 5907 5907
5936 5937 5936 5937 5937 5937 5938 5938 5938 5939 5939 5939 5937 5937 5936 5936 5935 5934 5933 5932 5933 5933 5932 5932 5931 5931 5931 5931 5931 5931 5931 5931 5931 5930 5930 5930 5930 5930 5930 5930 5930 5930 5930 5929 5929 5929 5929 5929 5929 5929 5929 5928 5928 5927 5926 5926 5925 5925 5924 5924 5923 5923 5923 5922 5921 5921 5920 5920 5919 5918 5917 5916 5915 5914 5913 5912 5911 5910 5910 5910 5909 5908 5907 5906 5906 5906 5906 5906 5906 5905 5905 5905 5905 5905 5904 5904 5905
5936 5937 5936 5937 5937 5938 5938 5938 5939 5939 5939 5939 5938 5937 5937 5937 5936 5935 5933 5933 5934 5934 5932 5932 5932 5932 5931 5931 5931 5931 5931 5931 5931 5931 5930 5931 5930 5930 5930 5930 5930 5930 5930 5930 5929 5929 5929 5929 5929 5929 5929 5928 5928 5927 5926 5926 5925 5925 5924 5924 5923 5923 5922 5922 5921 5920 5919 5919 5918 5917 5916 5915 5914 5912 5911 5910 5909 5908 5908 5908 5908 5907 5906 5905 5904 5904 5904 5904 5904 5904 5903 5902 5902 5902 5902 5902 5902
5936 5936 5937 5937 5937 5938 5938 5938 5939 5939 5939 5939 5938 5938 5937 5937 5937 5935 5934 5934 5934 5933 5933 5932 5932 5932 5931 5931 5931 5931 5931 5931 5931 5931 5931 5931 5931 5931 5931 5931 5930 5930 5930 5930 5930 5930 5929 5929 5929 5929 5929 5928 5928 5927 5927 5926 5926 5925 5924 5924 5923 5922 5922 5921 5920 5919 5918 5917 5916 5916 5914 5913 5912 5912 5911 5909 5908 5907 5906 5906 5905 5905 5904 5903 5902 5902 5901 5901 5901 5901 5900 5899 5899 5899 5899 5899 5900
5936 5936 5937 5937 5938 5938 5938 5938 5938 5938 5939 5938 5938 5937 5937 5937 5937 5935 5934 5933 5933 5932 5933 5933 5933 5933 5932 5931 5931 5931 5931 5931 5931 5931 5931 5931 5931 5931 5931 5931 5931 5931 5931 5930 5930 5930 5929 5929 5929 5929 5929 5929 5928 5927 5927 5926 5926 5925 5924 5923 5923 5922 5921 5920 5919 5918 5916 5916 5915 5914 5913 5912 5911 5910 5910 5908 5906 5905 5904 5904 5903 5903 5902 5901 5900 5899 5899 5899 5898 5898 5897 5897 5897 5897 5897 5897 5897
5936 5936 5937 5938 5940 5939 5938 5938 5938 5938 5938 5938 5937 5937 5937 5937 5937 5936 5934 5933 5933 5932 5933 5934 5934 5933 5933 5932 5931 5931 5931 5931 5931 5931 5931 5931 5931 5931 5931 5931 5931 5931 5931 5930 5930 5930 5930 5929 5929 5929 5929 5929 5928 5927 5927 5926 5926 5925 5924 5923 5922 5921 5920 5919 5918 5917 5915 5914 5913 5913 5912 5911 5910 5909 5908 5907 5905 5903 5902 5901 5901 5901 5900 5900 5898 5897 5896 5896 5895 5894 5894 5894 5894 5894 5895 5895 5895
5936 5937 5939 5939 5940 5940 5938 5938 5938 5939 5938 5938 5938 5937 5937 5937 5937 5936 5935 5934 5933 5933 5934 5934 5935 5934 5933 5932 5931 5932 5932 5932 5932 5932 5931 5931 5931 5931 5931 5931 5931 5931 5931 5930 5930 5930 5930 5929 5929 5929 5929 5928 5928 5927 5926 5926 5925 5924 5923 5922 5921 5920 5919 5918 5917 5916 5915 5913 5912 5911 5910 5911 5910 5908 5907 5905 5903 5901 5900 5899 5898 5898 5898 5898 5896 5895 5894 5893 5892 5891 5891 5891 5891 5891 5891 5891 5892
5937 5937 5938 5938 5940 5940 5939 5938 5938 5939 5939 5939 5939 5937 5936 5937 5937 5936 5935 5935 5934 5933 5933 5934 5934 5935 5933 5932 5932 5932 5932 5932 5932 5932 5931 5931 5931 5931 5931 5931 5931 5931 5931 5930 5930 5930 5929 5929 5929 5929 5928 5928 5927 5927 5926 5925 5925 5924 5923 5921 5920 5919 5918 5917 5916 5915 5913 5912 5910 5908 5908 5911 5910 5907 5905 5903 5901 5900 5898 5897 5896 5895 5895 5894 5893 5892 5891 5890 5889 5889 5888 5887 5887 5887 5887 5887 5888
5941 5940 5939 5938 5940 5939 5938 5938 5938 5939 5939 5939 5939 5937 5936 5936 5937 5936 5936 5936 5935 5934 5933 5933 5934 5934 5933 5932 5932 5932 5932 5932 5933 5931 5930 5931 5931 5931 5931 5931 5930 5931 5931 5930 5930 5930 5929 5929 5929 5928 5928 5928 5927 5926 5926 5925 5924 5923 5922 5920 5919 5918 5917 5916 5915 5914 5912 5911 5909 5906 5906 5909 5910 5906 5903 5901 5901 5899 5897 5896 5894 5893 5892 5890 5889 5889 5888 5888 5887 5886 5886 5885 5884 5884 5884 5883 5883
5942 5942 5941 5940 5939 5938 5937 5937 5937 5938 5939 5939 5939 5938 5937 5936 5937 5936 5936 5936 5935 5935 5934 5934 5934 5933 5933 5933 5933 5932 5932 5932 5932 5931 5930 5931 5931 5931 5931 5930 5930 5930 5930 5930 5930 5930 5929 5929 5929 5928 5928 5927 5927 5926 5925 5924 5923 5922 5921 5920 5919 5918 5916 5915 5914 5913 5912 5910 5908 5906 5904 5905 5907 5906 5902 5900 5899 5898 5896 5894 5893 5891 5890 5888 5886 5885 5885 5884 5883 5883 5882 5882 5881 5881 5881 5880 5879
5943 5942 5943 5942 5940 5939 5938 5937 5937 5938 5938 5938 5938 5937 5937 5936 5936 5936 5936 5935 5935 5935 5934 5934 5934 5934 5934 5934 5934 5933 5932 5932 5932 5931 5931 5931 5931 5931 5931 5930 5930 5930 5930 5930 5930 5930 5929 5929 5929 5928 5928 5927 5927 5926 5925 5923 5923 5922 5920 5919 5918 5917 5916 5915 5913 5912 5911 5909 5907 5905 5903 5902 5903 5903 5901 5898 5896 5895 5894 5892 5890 5889 5888 5885 5884 5882 5881 5880 5879 5879 5879 5878 5878 5878 5878 5877 5875
5942 5942 5943 5944 5944 5942 5939 5937 5936 5937 5938 5937 5937 5937 5937 5936 5936 5935 5935 5935 5934 5934 5934 5934 5934 5934 5934 5934 5934 5934 5933 5932 5932 5931 5931 5931 5931 5931 5930 5930 5930 5930 5930 5929 5929 5929 5929 5929 5929 5928 5928 5927 5926 5925 5924 5923 5922 5921 5920 5919 5917 5916 5915 5914 5912 5911 5909 5908 5906 5904 5902 5901 5900 5899 5899 5898 5895 5893 5891 5890 5888 5886 5885 5883 5881 5879 5878 5877 5875 5875 5875 5875 5875 5874 5874 5872 5871
5938 5942 5943 5945 5946 5944 5939 5936 5936 5937 5936 5936 5936 5936 5936 5935 5935 5935 5934 5934 5934 5934 5933 5933 5933 5933 5933 5933 5933 5933 5933 5932 5932 5931 5931 5931 5931 5931 5931 5930 5930 5930 5929 5929 5929 5929 5929 5929 5928 5928 5927 5926 5926 5925 5924 5922 5921 5920 5919 5918 5917 5916 5914 5913 5911 5910 5908 5906 5904 5903 5901 5900 5898 5897 5896 5896 5894 5892 5890 5888 5886 5884 5882 5880 5878 5876 5874 5873 5871 5870 5870 5870 5870 5870 5870 5869 5867
5935 5939 5943 5945 5946 5945 5939 5935 5935 5936 5935 5935 5935 5935 5935 5934 5935 5934 5934 5933 5933 5933 5933 5932 5933 5933 5932 5933 5933 5933 5933 5932 5932 5931 5931 5930 5930 5930 5930 5930 5930 5930 5929 5929 5929 5929 5929 5928 5928 5927 5926 5926 5925 5924 5923 5922 5920 5919 5918 5917 5916 5914 5913 5912 5910 5908 5907 5905 5903 5902 5900 5898 5897 5895 5894 5893 5892 5891 5889 5887 5885 5883 5881 5878 5876 5874 5871 5869 5867 5866 5865 5864 5864 5865 5866 5865 5863
5934 5937 5942 5944 5945 5945 5941 5937 5935 5934 5935 5934 5934 5934 5934 5933 5934 5934 5933 5932 5932 5931 5932 5932 5932 5932 5931 5932 5932 5932 5932 5932 5931 5931 5930 5930 5930 5930 5930 5930 5929 5929 5929 5929 5928 5928 5928 5927 5927 5926 5925 5924 5923 5922 5921 5920 5919 5918 5917 5915 5914 5913 5911 5910 5909 5907 5906 5904 5902 5901 5899 5898 5896 5894 5893 5891 5889 5888 5886 5885 5883 5881 5879 5877 5874 5872 5870 5867 5864 5862 5861 5860 5860 5859 5860 5860 5859
5935 5935 5938 5943 5945 5945 5942 5938 5934 5933 5934 5933 5933 5933 5933 5932 5932 5933 5932 5932 5931 5930 5930 5930 5930 5931 5930 5931 5931 5931 5931 5931 5931 5930 5929 5929 5929 5929 5929 5929 5929 5928 5928 5928 5927 5927 5927 5926 5926 5925 5924 5923 5922 5921 5919 5918 5917 5916 5915 5913 5912 5911 5909 5908 5907 5906 5904 5903 5901 5900 5898 5896 5895 5893 5892 5890 5888 5886 5884 5883 5881 5879 5877 5875 5872 5869 5867 5864 5862 5859 5857 5857 5857 5856 5856 5856 5855
5937 5935 5934 5939 5943 5944 5943 5939 5934 5933 5935 5933 5932 5932 5932 5931 5930 5932 5932 5930 5930 5930 5929 5929 5929 5929 5929 5929 5930 5930 5930 5930 5930 5929 5929 5929 5929 5929 5929 5928 5928 5927 5927 5926 5926 5926 5925 5925 5924 5923 5922 5921 5920 5919 5918 5917 5915 5914 5913 5912 5911 5909 5908 5907 5906 5904 5903 5901 5900 5898 5897 5895 5893 5892 5890 5888 5886 5884 5882 5880 5878 5876 5874 5871 5869 5866 5863 5861 5858 5856 5854 5853 5853 5852 5852 5852 5851
5936 5937 5933 5934 5937 5939 5940 5939 5934 5933 5937 5935 5931 5930 5931 5929 5927 5928 5929 5928 5929 5929 5928 5927 5927 5927 5928 5928 5928 5928 5929 5929 5929 5929 5928 5928 5928 5928 5928 5927 5927 5926 5926 5925 5925 5924 5924 5923 5922 5921 5920 5919 5918 5917 5916 5915 5914 5913 5911 5910 5909 5908 5907 5906 5905 5903 5901 5900 5898 5896 5895 5893 5891 5890 5888 5886 5884 5882 5879 5877 5874 5872 5870 5868 5865 5863 5860 5858 5855 5852 5850 5849 5848 5847 5847 5846 5846
5931 5934 5933 5932 5933 5934 5936 5937 5934 5933 5937 5935 5929 5928 5929 5928 5926 5926 5926 5927 5926 5927 5926 5925 5924 5925 5926 5926 5927 5927 5927 5927 5927 5927 5927 5927 5927 5927 5927 5926 5926 5925 5925 5924 5924 5923 5922 5922 5921 5920 5919 5918 5917 5916 5915 5914 5913 5911 5910 5909 5908 5907 5905 5904 5903 5901 5899 5898 5896 5894 5892 5891 5889 5887 5885 5883 5881 5878 5876 5873 5871 5869 5866 5864 5861 5859 5857 5854 5851 5849 5846 5844 5843 5842 5842 5841 5841
5927 5928 5930 5930 5929 5930 5932 5933 5933 5934 5934 5932 5928 5927 5927 5926 5927 5926 5924 5925 5925 5924 5924 5924 5923 5923 5924 5924 5925 5925 5926 5925 5926 5926 5926 5926 5925 5925 5925 5925 5924 5924 5923 5923 5922 5922 5921 5920 5919 5919 5918 5917 5916 5915 5914 5912 5911 5910 5908 5907 5906 5904 5903 5901 5900 5898 5896 5895 5893 5892 5890 5888 5886 5884 5882 5880 5878 5875 5873 5870 5867 5865 5862 5860 5857 5855 5852 5850 5848 5846 5843 5841 5839 5838 5837 5837 5836
5924 5924 5927 5928 5927 5929 5930 5930 5932 5932 5930 5928 5928 5929 5926 5925 5926 5926 5924 5924 5923 5922 5922 5922 5922 5921 5922 5922 5922 5923 5923 5924 5923 5924 5924 5924 5923 5923 5923 5923 5923 5922 5922 5921 5921 5920 5920 5919 5918 5917 5916 5915 5914 5913 5912 5911 5909 5908 5906 5905 5903 5901 5900 5898 5897 5895 5893 5892 5890 5888 5886 5884 5882 5880 5878 5876 5874 5872 5870 5867 5863 5860 5857 5855 5852 5850 5847 5845 5843 5842 5841 5838 5836 5834 5833 5832 5831
5920 5923 5925 5927 5927 5927 5927 5927 5928 5927 5926 5926 5928 5929 5927 5924 5925 5927 5925 5921 5920 5920 5920 5920 5920 5920 5920 5920 5920 5920 5921 5922 5922 5922 5922 5922 5921 5921 5921 5921 5921 5920 5920 5919 5919 5918 5918 5917 5916 5915 5914 5913 5912 5911 5910 5908 5907 5906 5904 5902 5900 5899 5897 5896 5894 5892 5890 5889 5887 5885 5883 5881 5879 5877 5874 5872 5870 5868 5866 5863 5860 5856 5853 5851 5848 5845 5843 5841 5839 5837 5837 5835 5832 5830 5829 5828 5827
5918 5921 5924 5925 5926 5925 5925 5926 5925 5924 5924 5925 5927 5929 5928 5925 5924 5926 5925 5921 5919 5918 5919 5919 5918 5918 5918 5918 5918 5917 5917 5919 5920 5920 5920 5920 5918 5918 5918 5918 5918 5918 5918 5917 5917 5916 5916 5915 5914 5913 5912 5911 5910 5908 5907 5906 5904 5903 5901 5900 5898 5896 5894 5893 5891 5889 5887 5885 5884 5882 5880 5877 5875 5873 5871 5869 5867 5864 5862 5860 5857 5854 5850 5847 5844 5841 5839 5836 5834 5832 5831 5830 5828 5826 5824 5823 5822
5916 5920 5923 5924 5925 5925 5924 5925 5925 5924 5924 5925 5925 5925 5925 5924 5923 5923 5922 5922 5920 5917 5916 5918 5917 5916 5916 5916 5916 5915 5915 5916 5917 5917 5918 5917 5915 5915 5915 5915 5916 5916 5916 5915 5914 5914 5913 5912 5912 5911 5910 5909 5907 5906 5905 5903 5902 5900 5899 5897 5895 5893 5892 5890 5888 5886 5884 5882 5880 5879 5877 5875 5872 5870 5868 5866 5864 5861 5859 5857 5854 5851 5848 5844 5841 5839 5836 5833 5831 5828 5826 5825 5824 5822 5820 5819 5818
5915 5918 5921 5922 5923 5924 5924 5925 5925 5925 5925 5925 5923 5921 5922 5922 5920 5919 5918 5918 5918 5915 5914 5915 5915 5914 5914 5913 5913 5914 5913 5912 5913 5914 5915 5914 5912 5912 5912 5912 5912 5913 5913 5912 5912 5911 5910 5910 5909 5908 5907 5906 5905 5903 5902 5900 5899 5897 5896 5894 5892 5891 5889 5887 5885 5883 5881 5880 5878 5876 5874 5872 5870 5867 5865 5863 5860 5858 5856 5853 5851 5848 5845 5842 5839 5835 5833 5830 5828 5825 5822 5821 5819 5818 5816 5814 5813
5914 5915 5918 5919 5920 5922 5922 5922 5923 5923 5923 5922 5919 5918 5920 5918 5915 5915 5914 5914 5914 5913 5912 5913 5913 5912 5912 5911 5911 5911 5911 5909 5908 5909 5911 5911 5909 5909 5910 5909 5909 5910 5910 5910 5909 5908 5908 5907 5906 5905 5904 5903 5902 5901 5899 5897 5896 5894 5893 5891 5889 5888 5886 5884 5882 5880 5878 5876 5874 5872 5870 5869 5866 5864 5862 5859 5857 5854 5852 5850 5847 5845 5842 5838 5835 5832 5829 5826 5824 5822 5819 5817 5815 5813 5812 5810 5808
5913 5913 5914 5918 5920 5921 5920 5921 5921 5920 5920 5920 5918 5917 5917 5916 5913 5912 5911 5911 5911 5911 5911 5911 5910 5910 5910 5909 5909 5908 5907 5907 5906 5906 5906 5907 5905 5906 5907 5907 5906 5906 5906 5906 5906 5905 5904 5904 5903 5902 5901 5900 5899 5898 5896 5894 5893 5891 5890 5888 5886 5884 5883 5881 5879 5877 5875 5873 5871 5869 5867 5865 5863 5860 5858 5855 5853 5851 5848 5846 5843 5841 5838 5835 5831 5828 5825 5822 5820 5817 5815 5813 5810 5809 5807 5806 5804
5914 5914 5914 5916 5917 5917 5917 5918 5919 5917 5917 5918 5918 5917 5916 5916 5914 5911 5908 5909 5909 5908 5909 5909 5908 5909 5908 5908 5907 5906 5905 5905 5905 5903 5903 5903 5902 5902 5904 5904 5904 5904 5903 5903 5902 5902 5901 5900 5900 5899 5898 5897 5896 5894 5893 5891 5890 5888 5886 5885 5883 5881 5879 5878 5876 5874 5872 5870 5868 5865 5863 5861 5859 5856 5854 5851 5849 5846 5844 5842 5839 5836 5834 5831 5827 5824 5820 5817 5814 5812 5810 5808 5806 5804 5802 5801 5799
5910 5913 5912 5913 5913 5912 5911 5912 5914 5915 5915 5916 5916 5916 5915 5914 5913 5909 5905 5906 5906 5906 5906 5906 5906 5907 5906 5906 5905 5904 5903 5903 5903 5901 5900 5899 5898 5899 5901 5901 5901 5901 5900 5900 5899 5899 5898 5897 5896 5895 5895 5894 5892 5891 5890 5888 5886 5884 5883 5881 5880 5878 5876 5874 5872 5870 5868 5866 5864 5861 5859 5857 5854 5852 5849 5847 5844 5842 5839 5837 5834 5831 5828 5825 5822 5819 5815 5812 5809 5807 5804 5802 5801 5799 5797 5796 5794
5902 5906 5908 5909 5910 5911 5911 5909 5909 5912 5913 5914 5915 5915 5914 5913 5911 5906 5902 5903 5904 5904 5904 5903 5904 5904 5904 5904 5903 5902 5902 5901 5900 5899 5899 5897 5895 5896 5898 5898 5898 5899 5898 5896 5896 5895 5895 5894 5893 5892 5891 5890 5889 5888 5886 5885 5883 5881 5880 5878 5876 5875 5873 5871 5869 5866 5864 5862 5860 5857 5855 5852 5850 5847 5845 5842 5840 5837 5834 5831 5828 5825 5822 5819 5816 5813 5809 5807 5804 5802 5799 5797 5795 5793 5791 5790 5788
5899 5901 5904 5906 5907 5908 5909 5907 5907 5909 5911 5912 5913 5913 5911 5909 5908 5904 5900 5901 5902 5901 5901 5901 5900 5901 5901 5901 5901 5900 5900 5899 5898 5897 5897 5895 5892 5893 5896 5895 5896 5896 5895 5893 5892 5892 5891 5890 5890 5889 5888 5887 5886 5884 5883 5881 5880 5878 5876 5875 5873 5871 5869 5867 5865 5863 5860 5858 5856 5853 5851 5848 5846 5843 5840 5837 5835 5832 5829 5826 5822 5819 5816 5813 5809 5806 5803 5801 5799 5796 5794 5792 5790 5788 5786 5784 5783
5899 5899 5901 5904 5905 5906 5906 5905 5906 5907 5909 5909 5909 5911 5908 5903 5903 5903 5900 5899 5900 5899 5899 5898 5897 5898 5897 5898 5898 5898 5897 5896 5895 5895 5894 5892 5890 5891 5893 5892 5893 5893 5892 5890 5889 5889 5888 5887 5886 5885 5884 5883 5882 5881 5879 5877 5876 5874 5873 5871 5869 5867 5865 5863 5861 5859 5856 5854 5852 5849 5846 5844 5841 5838 5836 5833 5829 5827 5824 5821 5817 5814 5811 5807 5804 5800 5797 5795 5792 5790 5788 5786 5785 5784 5781 5779 5777